Location: Unspecified
(0.0000°N, 0.0000°E)
Time: 19:24:44
(UTC+00:00)

Tiros 1 despin weight - All Passes

Search period start: 14 July 2020 00:00
Search period end: 24 July 2020 00:00
Orbit: 593 x 642 km, 48.2° (Epoch: 14 July)

Date Brightness Start Highest point End Pass type
(mag) Time Alt. Az. Time Alt. Az. Time Alt. Az.
14 Jul - 02:10:55 10° NW 02:15:35 88° SW 02:20:17 10° SE night (unlit)
14 Jul - 12:41:14 10° SSE 12:42:27 11° SE 12:43:38 10° ESE daylight
14 Jul - 14:19:35 10° SW 14:23:52 51° NW 14:28:07 10° NNE daylight
15 Jul - 00:47:16 10° N 00:50:37 19° NE 00:53:59 10° E night (unlit)
15 Jul - 02:27:50 10° WNW 02:32:01 32° SW 02:36:13 10° SSE night (unlit)
15 Jul - 12:55:06 10° S 12:58:57 29° SE 13:02:47 10° ENE daylight
15 Jul - 14:37:13 10° W 14:40:18 19° NW 14:43:24 10° N daylight
16 Jul - 01:02:32 10° NNW 01:07:03 50° NE 01:11:36 10° SE night (unlit)
16 Jul - 02:46:26 10° WSW 02:48:31 13° SW 02:50:36 10° SSW night (unlit)
16 Jul - 13:10:57 10° SW 13:15:22 85° SE 13:19:46 10° NE daylight
16 Jul - 23:40:44 10° NNE 23:42:02 11° NE 23:43:20 10° ENE night (unlit)
17 Jul - 01:18:54 10° NW 01:23:28 58° SW 01:28:05 10° SSE night (unlit)
17 Jul - 11:47:33 10° S 11:50:25 17° SE 11:53:16 10° E daylight
17 Jul - 13:27:49 10° WSW 13:31:47 33° NW 13:35:45 10° NNE daylight
17 Jul - 23:54:31 10° N 23:58:31 28° NE 00:02:33 10° ESE night (unlit)
18 Jul - 01:36:19 10° W 01:39:56 22° SW 01:43:33 10° S night (unlit)
18 Jul - 12:02:38 10° SSW 12:06:52 45° SE 12:11:05 10° ENE daylight
18 Jul - 13:46:25 10° WNW 13:48:15 12° NW 13:50:06 10° NNW daylight
19 Jul - 00:10:18 10° NW 00:14:56 78° NE 00:19:38 10° SE night (unlit)
19 Jul - 12:18:55 10° SW 12:23:17 61° NW 12:27:38 10° NNE daylight
19 Jul - 22:47:01 10° N 22:49:57 17° NE 22:52:54 10° E night (unlit)
20 Jul - 00:27:03 10° WNW 00:31:22 38° SW 00:35:43 10° SSE night (unlit)
20 Jul - 10:54:41 10° S 10:58:22 25° SE 11:02:00 10° ENE daylight
20 Jul - 12:36:17 10° WSW 12:39:43 22° NW 12:43:08 10° N daylight
20 Jul - 23:02:02 10° NNW 23:06:24 42° NE 23:10:50 10° ESE night (unlit)
21 Jul - 00:45:12 10° W 00:47:51 15° SW 00:50:31 10° SSW night (unlit)
21 Jul - 11:10:22 10° SSW 11:14:48 71° SE 11:19:11 10° NE daylight
21 Jul - 23:18:13 10° NW 23:22:49 69° SW 23:27:29 10° SSE night (unlit)
22 Jul - 09:47:20 10° SSE 09:49:48 14° SE 09:52:15 10° E daylight
22 Jul - 11:27:03 10° WSW 11:31:13 39° NW 11:35:20 10° NNE daylight
22 Jul - 21:54:08 10° N 21:57:52 24° NE 22:01:37 10° ESE night (unlit)
22 Jul - 23:35:26 10° WNW 23:39:16 25° SW 23:43:08 10° S night (unlit)
23 Jul - 10:02:07 10° SSW 10:06:18 38° SE 10:10:24 10° ENE daylight
23 Jul - 11:45:09 10° W 11:47:39 15° NW 11:50:09 10° NNW daylight
23 Jul - 22:09:44 10° NNW 22:14:17 65° NE 22:18:55 10° SE night (unlit)
